This is the latest recevied weather packets stored in our database for station/object AD8BW. If no packets are shown the sender has not sent any weather packets the latest 10 day(s).
| Time | Temp. | Humidity | Pressure | Rain* | Wind** | Luminosity | Snow |
|---|---|---|---|---|---|---|---|
| 1777164118 | 7.22° C | 89% | 1016.5 hPa | 0 mm | - | 0 W/m² | - |
| 1777163518 | 7.22° C | 89% | 1016.4 hPa | 0 mm | - | 0 W/m² | - |
| 1777162918 | 7.22° C | 89% | 1016.3 hPa | 0 mm | - | 0 W/m² | - |
| 1777162315 | 7.78° C | 89% | 1016.2 hPa | 0 mm | - | 0 W/m² | - |
| 1777161716 | 7.78° C | 89% | 1015.9 hPa | 0 mm | - | 0 W/m² | - |
| 1777161116 | 7.78° C | 88% | 1015.9 hPa | 0 mm | - | 5 W/m² | - |
| 1777160515 | 7.78° C | 88% | 1015.9 hPa | 0 mm | - | 7 W/m² | - |
| 1777159913 | 8.33° C | 88% | 1015.7 hPa | 0 mm | - | 7 W/m² | - |
| 1777159316 | 8.33° C | 88% | 1015.6 hPa | 0 mm | - | 11 W/m² | - |
| 1777158719 | 8.33° C | 88% | 1015.5 hPa | 0 mm | - | 18 W/m² | - |
| 1777158118 | 8.33° C | 88% | 1015.2 hPa | 0 mm | - | 19 W/m² | - |
| 1777157513 | 8.33° C | 88% | 1015.1 hPa | 0 mm | - | 25 W/m² | - |
| 1777156914 | 8.33° C | 88% | 1015 hPa | 0 mm | - | 26 W/m² | - |
| 1777156314 | 8.33° C | 88% | 1015 hPa | 0 mm | - | 33 W/m² | - |
| 1777155711 | 8.33° C | 88% | 1014.9 hPa | 0 mm | - | 32 W/m² | - |
| 1777155111 | 8.33° C | 88% | 1015 hPa | 0 mm | - | 37 W/m² | - |
| 1777154518 | 8.89° C | 88% | 1014.9 hPa | 0 mm | - | 35 W/m² | - |
| 1777153911 | 8.89° C | 88% | 1014.7 hPa | 0 mm | - | 37 W/m² | - |
| 1777153313 | 8.89° C | 88% | 1014.6 hPa | 0 mm | - | 44 W/m² | - |
| 1777152714 | 8.89° C | 88% | 1014.5 hPa | 0 mm | - | 42 W/m² | - |
| 1777152110 | 8.89° C | 88% | 1014.3 hPa | 0 mm | - | 51 W/m² | - |
| 1777151513 | 8.89° C | 88% | 1014.2 hPa | 0 mm | - | 47 W/m² | - |
| 1777150910 | 9.44° C | 87% | 1014 hPa | 0 mm | - | 54 W/m² | - |
| 1777150310 | 9.44° C | 87% | 1013.9 hPa | 0 mm | - | 79 W/m² | - |
| 1777149713 | 9.44° C | 87% | 1013.9 hPa | 0 mm | - | 67 W/m² | - |
* Rain latest hour (hover to see other rain measurements)
** Current wind speed in m/s (hover to see current wind gust speed)